This is the latest recevied weather packets stored in our database for station/object DPX206-15. If no packets are shown the sender has not sent any weather packets the latest 1 day(s).
| Time | Temp. | Humidity | Pressure | Rain* | Wind** | Luminosity | Snow |
|---|---|---|---|---|---|---|---|
| 1777990901 | 15.56° C | 83% | 1009.9 hPa | 0 mm | 1.79 m/s, 21° | 29 W/m² | - |
| 1777990151 | 15.56° C | 82% | 1010.1 hPa | 0 mm | 1.79 m/s, 10° | 91 W/m² | - |
| 1777989401 | 16.11° C | 82% | 1010 hPa | 0 mm | 1.79 m/s, 18° | 146 W/m² | - |
| 1777988650 | 16.11° C | 82% | 1010.1 hPa | 0 mm | 1.79 m/s, 5° | 135 W/m² | - |
| 1777987900 | 16.11° C | 82% | 1010.3 hPa | 0 mm | 1.34 m/s, 15° | 173 W/m² | - |
| 1777987150 | 16.67° C | 80% | 1010.2 hPa | 0 mm | 3.13 m/s, 353° | 140 W/m² | - |
| 1777986400 | 17.22° C | 80% | 1010.3 hPa | 0 mm | 1.79 m/s, 16° | 219 W/m² | - |
| 1777985650 | 16.67° C | 81% | 1010 hPa | 0 mm | 1.34 m/s, 358° | 273 W/m² | - |
| 1777984900 | 16.67° C | 81% | 1010.4 hPa | 0 mm | 1.79 m/s, 10° | 208 W/m² | - |
| 1777984149 | 16.11° C | 82% | 1010.6 hPa | 0 mm | 1.79 m/s, 17° | 274 W/m² | - |
| 1777983399 | 16.11° C | 80% | 1010.6 hPa | 0 mm | 1.34 m/s, 31° | 130 W/m² | - |
| 1777982649 | 16.67° C | 80% | 1010.7 hPa | 0 mm | 1.34 m/s, 26° | 124 W/m² | - |
| 1777981899 | 16.67° C | 80% | 1010.6 hPa | 0 mm | 1.79 m/s, 16° | 179 W/m² | - |
| 1777981149 | 17.22° C | 80% | 1010.6 hPa | 0 mm | 2.24 m/s, 7° | 466 W/m² | - |
| 1777980399 | 17.22° C | 81% | 1010.8 hPa | 0 mm | 0.89 m/s, 30° | 253 W/m² | - |
| 1777979648 | 16.67° C | 81% | 1010.8 hPa | 0 mm | 0.89 m/s, 32° | 221 W/m² | - |
| 1777978898 | 16.67° C | 82% | 1011 hPa | 0 mm | 0.89 m/s, 13° | 203 W/m² | - |
| 1777978148 | 16.11° C | 83% | 1011.1 hPa | 0 mm | 1.34 m/s, 19° | 233 W/m² | - |
| 1777977398 | 16.11° C | 84% | 1011.2 hPa | 0 mm | 1.79 m/s, 14° | 205 W/m² | - |
| 1777976648 | 16.11° C | 84% | 1011.1 hPa | 0 mm | 0.45 m/s, 38° | 235 W/m² | - |
| 1777975897 | 16.11° C | 84% | 1011.2 hPa | 0 mm | 0.89 m/s, 19° | 241 W/m² | - |
| 1777975147 | 16.11° C | 85% | 1011 hPa | 0 mm | 0.89 m/s, 15° | 237 W/m² | - |
| 1777974397 | 16.11° C | 87% | 1010.9 hPa | 0 mm | 0 m/s | 253 W/m² | - |
| 1777973647 | 15.56° C | 88% | 1011.2 hPa | 0 mm | 0 m/s | 203 W/m² | - |
| 1777972896 | 15.56° C | 89% | 1011.3 hPa | 0 mm | 0.45 m/s, 328° | 227 W/m² | - |
* Rain latest hour (hover to see other rain measurements)
** Current wind speed in m/s (hover to see current wind gust speed)